Hooper Bay, AK

6:53 AM AKST on February 08, 2016 (GMT -0900)
Chevak

Weather History for PAVA - July, 2013

Change the Weather History Date:

Monday, July 8, 2013

  Actual Average (PAHP) Record (PAHP)
Temperature  
Mean Temperature 48 °F -  
Max Temperature 57 °F 51 °F 64 °F (2003)
Min Temperature 39 °F 44 °F 39 °F (1999)
Degree Days  
Heating Degree Days 17    
Moisture  
Dew Point 42 °F    
Average Humidity 88    
Maximum Humidity 100    
Minimum Humidity 64    
Precipitation  
Precipitation 0.02 in - - ()
Sea Level Pressure  
Sea Level Pressure 29.83 in    
Wind  
Wind Speed 9 mph (NW)    
Max Wind Speed 16 mph    
Max Gust Speed 17 mph    
Visibility 7 miles    
Events Fog , Rain    
Averages and records for this station are not official NWS values.
T = Trace of Precipitation, MM = Missing Value Source: NWS Daily Summary

Daily Weather History Graph

Daily Weather History Graph

Search for Another Location

Airport or City:

Trip Planner

Search our weather history database for the weather conditions in past years. The results will help you decide how hot, cold, wet, or windy it might be!

Date:

Astronomy

Jul. 08, 2013 Rise Set
Actual Time 5:37 AM AKDT 12:36 AM AKDT
Civil Twilight 3:20 AM AKDT 2:42 AM AKDT
Nautical Twilight Sun does not rise Sun does not rise
Astronomical Twilight Sun does not rise Sun does not rise
Moon 6:59 AM AKDT 11:55 PM AKDT
Length of Visible Light 23h 22m
Length of Day
18h 59m
New Moon, 0% of the Moon is Illuminated
Jul 8
New Moon
Jul 15
First Quarter
Jul 22
Full
Jul 29
Last Quarter
Aug 6
New

Hourly Weather History & Observations

Time (AKDT) Temp. Windchill Dew Point Humidity Pressure Visibility Wind Dir Wind Speed Gust Speed Precip Events Conditions
12:16 AM 42.8 °F 36.2 °F 41.0 °F 93% 29.81 in 10.0 mi West 12.7 mph - N/A   Overcast
12:57 AM 42.1 °F 36.1 °F 41.0 °F 96% 29.82 in 10.0 mi West 10.4 mph - N/A   Overcast
1:36 AM 42.8 °F 37.0 °F 41.0 °F 93% 29.81 in 2.0 mi West 10.4 mph - N/A   Overcast
1:39 AM 42.8 °F 37.5 °F 41.0 °F 93% 29.81 in 1.8 mi West 9.2 mph - N/A   Overcast
1:46 AM 42.8 °F 37.0 °F 41.0 °F 93% 29.81 in 0.8 mi West 10.4 mph - N/A   Overcast
1:50 AM 41.0 °F 35.2 °F 41.0 °F 100% 29.81 in 0.5 mi West 9.2 mph - N/A Fog Fog
1:54 AM 41.0 °F 34.7 °F 41.0 °F 100% 29.81 in 0.2 mi West 10.4 mph - N/A Fog Fog
1:57 AM 41.0 °F 34.3 °F 41.0 °F 100% 29.82 in 0.2 mi West 11.5 mph - N/A Fog Fog
2:05 AM 41.0 °F 35.2 °F 39.2 °F 93% 29.81 in 0.5 mi West 9.2 mph - N/A Fog Fog
2:09 AM 41.0 °F 34.7 °F 39.2 °F 93% 29.81 in 0.5 mi West 10.4 mph - N/A Fog Fog
2:17 AM 39.2 °F 33.6 °F 39.2 °F 100% 29.81 in 0.8 mi West 8.1 mph - N/A   Overcast
2:22 AM 39.2 °F 34.2 °F 39.2 °F 100% 29.81 in 0.5 mi WNW 6.9 mph - N/A Fog Fog
2:29 AM 39.2 °F 34.2 °F 39.2 °F 100% 29.81 in 0.8 mi WNW 6.9 mph - N/A   Overcast
2:34 AM 39.2 °F 35.9 °F 39.2 °F 100% 29.81 in 1.0 mi West 4.6 mph - N/A   Overcast
2:37 AM 39.2 °F 35.0 °F 39.2 °F 100% 29.81 in 1.2 mi West 5.8 mph - N/A   Overcast
2:46 AM 39.2 °F 35.9 °F 39.2 °F 100% 29.81 in 2.5 mi West 4.6 mph - N/A   Overcast
2:49 AM 39.2 °F 37.0 °F 39.2 °F 100% 29.81 in 3.0 mi WNW 3.5 mph - N/A   Overcast
2:57 AM 39.9 °F 35.8 °F 39.9 °F 100% 29.82 in 10.0 mi WNW 5.8 mph - N/A   Overcast
3:06 AM 41.0 °F 36.4 °F 39.2 °F 93% 29.81 in 10.0 mi West 6.9 mph - N/A   Overcast
3:27 AM 41.0 °F 37.1 °F 39.2 °F 93% 29.81 in 10.0 mi West 5.8 mph - N/A   Overcast
3:34 AM 41.0 °F 37.1 °F 39.2 °F 93% 29.81 in 10.0 mi West 5.8 mph - N/A   Overcast
3:57 AM 41.0 °F 36.4 °F 41.0 °F 100% 29.82 in 10.0 mi WSW 6.9 mph - N/A   Overcast
4:57 AM 42.1 °F 39.2 °F 42.1 °F 100% 29.81 in 10.0 mi West 4.6 mph - N/A   Overcast
5:57 AM 43.0 °F 41.3 °F 42.1 °F 97% 29.80 in 10.0 mi SW 3.5 mph - N/A   Overcast
6:57 AM 43.0 °F - 42.1 °F 97% 29.80 in 10.0 mi Calm Calm - N/A   Mostly Cloudy
7:57 AM 44.1 °F - 43.0 °F 96% 29.80 in 10.0 mi Calm Calm - 0.00 in Rain Light Rain
8:57 AM 45.0 °F - 43.0 °F 93% 29.80 in 10.0 mi Calm Calm - 0.00 in Rain Light Rain
9:57 AM 46.0 °F 44.8 °F 42.1 °F 86% 29.80 in 10.0 mi East 3.5 mph - 0.01 in Rain Light Rain
10:57 AM 48.0 °F - 43.0 °F 83% 29.81 in 10.0 mi NNE 5.8 mph - 0.00 in   Mostly Cloudy
11:57 AM 48.9 °F - 44.1 °F 83% 29.81 in 10.0 mi NE 6.9 mph - 0.01 in Rain Light Rain
12:57 PM 50.0 °F - 44.1 °F 80% 29.81 in 10.0 mi ENE 5.8 mph - 0.00 in Rain Light Rain
1:57 PM 52.0 °F - 45.0 °F 77% 29.82 in 10.0 mi North 6.9 mph - 0.00 in   Overcast
2:08 PM 53.6 °F - 46.4 °F 77% 29.81 in 10.0 mi North 8.1 mph - N/A   Overcast
2:35 PM 53.6 °F - 44.6 °F 72% 29.82 in 10.0 mi North 6.9 mph - N/A   Mostly Cloudy
2:57 PM 54.0 °F - 45.0 °F 72% 29.83 in 10.0 mi North 10.4 mph - N/A   Mostly Cloudy
3:04 PM 53.6 °F - 46.4 °F 77% 29.82 in 10.0 mi North 10.4 mph - N/A   Mostly Cloudy
3:57 PM 55.4 °F - 46.4 °F 72% 29.83 in 10.0 mi North 11.5 mph - N/A   Mostly Cloudy
4:49 PM 55.4 °F - 46.4 °F 72% 29.84 in 10.0 mi North 9.2 mph 17.3 mph N/A   Mostly Cloudy
4:52 PM 55.4 °F - 46.4 °F 72% 29.83 in 10.0 mi North 10.4 mph - N/A   Overcast
4:57 PM 55.4 °F - 44.6 °F 67% 29.84 in 10.0 mi North 10.4 mph - N/A   Overcast
5:35 PM 55.4 °F - 44.6 °F 67% 29.85 in 10.0 mi North 11.5 mph - N/A   Mostly Cloudy
5:57 PM 57.0 °F - 45.0 °F 64% 29.86 in 10.0 mi NW 12.7 mph - N/A   Mostly Cloudy
6:57 PM 55.9 °F - 44.1 °F 64% 29.88 in 10.0 mi NNW 10.4 mph - N/A   Scattered Clouds
7:57 PM 55.0 °F - 46.9 °F 74% 29.90 in 10.0 mi NNW 13.8 mph - N/A   Clear
8:57 PM 52.0 °F - 45.0 °F 77% 29.92 in 10.0 mi NNW 15.0 mph - N/A   Clear
9:57 PM 51.1 °F - 45.0 °F 80% 29.94 in 10.0 mi NNW 10.4 mph - N/A   Clear
10:48 PM 46.4 °F 39.8 °F 44.6 °F 93% 29.94 in 10.0 mi WNW 16.1 mph - N/A   Partly Cloudy
10:57 PM 46.0 °F 39.6 °F 44.1 °F 93% 29.96 in 10.0 mi NW 15.0 mph - N/A   Partly Cloudy
11:32 PM 44.6 °F 37.8 °F 44.6 °F 100% 29.96 in 10.0 mi WNW 15.0 mph - N/A   Mostly Cloudy
11:57 PM 45.0 °F 38.5 °F 43.0 °F 93% 29.98 in 10.0 mi WNW 13.8 mph - N/A   Overcast